Weather History for KBRD - October, 2011

Change the Weather History Date:

Wednesday, October 12, 2011

  Actual Average Record
Temperature  
Mean Temperature 59 °F -  
Max Temperature 63 °F 58 °F 78 °F (1996)
Min Temperature 55 °F 32 °F 19 °F (2012)
Degree Days  
Heating Degree Days 6    
Growing Degree Days 9 (Base 50)    
Moisture  
Dew Point 53 °F    
Average Humidity 82    
Maximum Humidity 94    
Minimum Humidity 58    
Precipitation  
Precipitation 0.07 in - - ()
Sea Level Pressure  
Sea Level Pressure 29.71 in    
Wind  
Wind Speed 5 mph (South)    
Max Wind Speed 9 mph    
Max Gust Speed -    
Visibility 6 miles    
Events Fog , Rain    
Averages and records for this station are not official NWS values.
T = Trace of Precipitation, MM = Missing Value Source: NWS Daily Summary

Daily Weather History Graph

Daily Weather History Graph

Search for Another Location

Airport or City:

Trip Planner

Search our weather history database for the weather conditions in past years. The results will help you decide how hot, cold, wet, or windy it might be!

Date:

Astronomy

Oct. 12, 2011 Rise Set
Actual Time 7:29 AM CDT 6:35 PM CDT
Civil Twilight 6:59 AM CDT 7:06 PM CDT
Nautical Twilight 6:24 AM CDT 7:40 PM CDT
Astronomical Twilight 5:49 AM CDT 8:15 PM CDT
Moon 6:31 PM CDT (10/12) 8:10 AM CDT (10/12)
Length of Visible Light 12h 06m
Length of Day
11h 06m
Full, 100% of the Moon is Illuminated
Oct 12
Full
Oct 19
Last Quarter
Oct 26
New
Nov 2
First Quarter
Nov 10
Full

Hourly Weather History & Observations

Time (CDT) Temp. Dew Point Humidity Pressure Visibility Wind Dir Wind Speed Gust Speed Precip Events Conditions
12:53 AM 62.1 °F 46.9 °F 58% 29.75 in 10.0 mi SSE 6.9 mph - N/A   Partly Cloudy
2:53 AM 63.0 °F 48.0 °F 58% 29.74 in 10.0 mi SSE 8.1 mph - N/A   Overcast
3:53 AM 59.0 °F 51.1 °F 75% 29.75 in 10.0 mi South 9.2 mph - 0.01 in   Mostly Cloudy
4:53 AM 57.9 °F 52.0 °F 81% 29.73 in 10.0 mi SSE 4.6 mph - 0.03 in   Mostly Cloudy
5:53 AM 57.9 °F 53.1 °F 84% 29.74 in 10.0 mi South 3.5 mph - 0.00 in   Overcast
6:53 AM 57.9 °F 53.1 °F 84% 29.73 in 10.0 mi SE 5.8 mph - 0.01 in   Mostly Cloudy
7:53 AM 57.0 °F 52.0 °F 83% 29.74 in 10.0 mi SE 3.5 mph - N/A   Scattered Clouds
8:53 AM 57.9 °F 52.0 °F 81% 29.73 in 10.0 mi SE 6.9 mph - N/A   Mostly Cloudy
9:53 AM 60.1 °F 53.1 °F 78% 29.73 in 10.0 mi South 6.9 mph - 0.00 in Rain Light Rain
10:53 AM 59.0 °F 53.1 °F 81% 29.73 in 10.0 mi South 5.8 mph - 0.01 in   Overcast
11:53 AM 61.0 °F 54.0 °F 78% 29.73 in 10.0 mi South 5.8 mph - 0.00 in Rain Light Rain
12:53 PM 62.1 °F 54.0 °F 75% 29.71 in 10.0 mi SSW 4.6 mph - 0.00 in   Overcast
1:53 PM 63.0 °F 53.1 °F 70% 29.70 in 10.0 mi South 3.5 mph - 0.00 in Rain Light Rain
2:53 PM 61.0 °F 55.0 °F 81% 29.71 in 8.0 mi SSE 8.1 mph - 0.01 in Rain Light Rain
3:45 PM 60.8 °F 55.4 °F 82% 29.71 in 6.0 mi SSE 6.9 mph - 0.01 in Rain Light Rain
4:08 PM 60.8 °F 55.4 °F 82% 29.70 in 7.0 mi SSE 6.9 mph - 0.00 in Rain Light Rain
4:53 PM 60.1 °F 55.0 °F 83% 29.70 in 8.0 mi SSW 4.6 mph - 0.00 in Rain Light Rain
5:53 PM 60.1 °F 54.0 °F 80% 29.70 in 7.0 mi WSW 3.5 mph - 0.00 in   Overcast
6:53 PM 59.0 °F 54.0 °F 83% 29.70 in 9.0 mi SW 3.5 mph - 0.00 in   Mostly Cloudy
7:53 PM 57.0 °F 53.1 °F 87% 29.70 in 5.0 mi SE 3.5 mph - N/A   Scattered Clouds
8:21 PM 55.4 °F 51.8 °F 88% 29.70 in 1.8 mi South 3.5 mph - N/A   Scattered Clouds
8:36 PM 55.4 °F 51.8 °F 88% 29.69 in 1.0 mi South 4.6 mph - N/A   Mostly Cloudy
8:42 PM 55.4 °F 51.8 °F 88% 29.69 in 0.2 mi South 4.6 mph - N/A Fog Fog
8:49 PM 55.4 °F 53.6 °F 94% 29.69 in 0.5 mi SSW 3.5 mph - N/A Fog Fog
8:53 PM 55.9 °F 53.1 °F 90% 29.70 in 1.0 mi SSW 3.5 mph - N/A   Overcast
9:08 PM 57.2 °F 53.6 °F 88% 29.69 in 2.0 mi Calm Calm - N/A   Overcast
9:44 PM 55.4 °F 51.8 °F 88% 29.68 in 2.5 mi South 3.5 mph - N/A   Mostly Cloudy
9:51 PM 55.4 °F 51.8 °F 88% 29.68 in 2.0 mi South 3.5 mph - N/A   Mostly Cloudy
9:53 PM 55.0 °F 52.0 °F 89% 29.69 in 2.0 mi South 3.5 mph - N/A   Mostly Cloudy
10:02 PM 57.2 °F 53.6 °F 88% 29.68 in 3.0 mi Calm Calm - N/A   Mostly Cloudy
10:43 PM 55.4 °F 51.8 °F 88% 29.67 in 6.0 mi South 3.5 mph - N/A   Mostly Cloudy
10:53 PM 55.9 °F 52.0 °F 87% 29.68 in 6.0 mi SSW 4.6 mph - N/A   Mostly Cloudy
11:53 PM 55.9 °F 52.0 °F 87% 29.66 in 6.0 mi SW 5.8 mph - N/A   Partly Cloudy